Location: Regona
(45.2000°N, 9.8167°E)
Time: 02:49:53
(UTC+00:00)

FALCON 9 DEB - Pass Details

Date: 07 June 2020
Orbit: 428 x 442 km, 53.0° (Epoch: 11 July)

Event Time Altitude Azimuth Distance (km) Brightness Sun altitude
Rises 02:12:47 0° 302° (WNW) 2,409 6.8 -11.4°
Reaches altitude 10° 02:14:54 10° 302° (WNW) 1,541 5.8 -11.2°
Maximum altitude 02:18:22 90° 275° (W) 440 3.1 -10.8°
Drops below altitude 10° 02:21:50 10° 124° (ESE) 1,542 6.0 -10.4°
Sets 02:23:57 0° 124° (SE) 2,410 7.0 -10.1°
